THORAD DELTA 1 DEB, 8173

Orbit data source: Space-Track

THORAD DELTA 1 DEB, 8173 is space debris in SSO originally from a launch on Fri, 15 Nov 1974 UTC launched from the Air Force Western Test Range (AFWTR). Debris objects in space refer to the collection of defunct objects orbiting the Earth. Examples of debris include non-operational satellites, rocket bodies, and fragments generated from explosions, collisions, or faulty payload assembly.

Loading next visibility...
Identifier
8173, 1974-089AP
Orbit
SSO
Country
Flag of USUS
Related business
Manufacturer
Unknown
Mission
Spacecraft
Bus & Motor
Unknown
Mass
Unknown
Launch date (UTC)
1974-11-15 (51 years ago)
Launch vehicle
Unknown
Launch site
Air Force Western Test Range (AFWTR)
Object type
Payload
Rocket body
Debris
Shape & HBR
Unknown shape, 0.1 m
Radar Cross Section
Small (<0.1 m²)

Expand to show TLE details & history
Last TLE update: 1 day ago

TLE from 1 day ago
0 THORAD DELTA 1 DEB
1 08173U 74089AP  26124.49640027  .00000058  00000-0  65743-3 0  9995
2 08173 101.9932 106.6848 0107762 209.6434 276.0868 12.51888321349529
Epoch: 2026-05-04T11:54Z
TLE epoch observation values (Epoch: 2026-05-04T11:54:48.983Z)
Latitude
53.81454°
Longitude
-97.6072°
Altitude
1,457.168 km
Speed
7.142 km/s
True Right ascension
20h 13m 55s
True Declination
53° 39' 55"
Sunlit
Object was in daylight at epoch
Visualization orbit readout
Latitude
Unknown
Longitude
Unknown
Altitude
Unknown
Speed
Unknown
Apparent Right ascension
Unknown
Apparent Declination
Unknown
Sunlit
N/A
Visualization observer readout
Local Sidereal Time
06:29:00
Azimuth
Unknown
Elevation
Unknown
Doppler factor
Unknown
Orbital elements
Apogee altitude
1,538.567 km
Perigee altitude
1,369.762 km
Semi-major axis
7,832.302 km
Eccentricity
0.01078
Inclination
101.9932°
RAAN
106.6848°
Arg. of periapsis
209.6434°
True anomaly
274.85724°
Mean anomaly
276.0868°
Eccentric anomaly
275.47218°
Mean motion
3.13119 °/min
Orbital period
114.97 mins
BSTAR
0.00065743
Loading maneuver chart data...
Computing Atmospheric mass density...

Documentation

Showing up to 5 results
|